User: anonymous   Login
Location: Unspecified
(0.0000°N, 0.0000°E)
Time: 23:49:28
(UTC+00:00)
Language:

COSMOS 2530 - Orbit

View from above orbital plane
View from above orbital plane
View from above satellite
View from above satellite

Ground track
Ground track

The orbit is defined by the following mean orbital elements,

1 43751U          26145.59597200 +.00000000 +00000-0 +29069-4 0 00008
2 43751  82.5147 236.2993 0020769  86.8296 273.5160 12.42880789    09
Epoch (UTC): 25 May 2026 14:18:11
Eccentricity: 0.0020769
inclination: 82.5147°
perigee height: 1478 km
apogee height: 1511 km
right ascension of ascending node: 236.2993°
argument of perigee: 86.8296°
revolutions per day: 12.42880789
mean anomaly at epoch: 273.5160°

The dashed part of the orbit path shows where the satellite is in the earth's shadow,  

DLR